Location: Rotheul
(50.2849°N, 11.2349°E)
Time: 15:37:17
(UTC+02:00)

ISS - Pass Details

Date: 20 July 2018
Orbit: 402 x 408 km, 51.6° (Epoch: 21 July)

Event Time Altitude Azimuth Distance (km) Brightness Sun altitude
Rises 03:50:12 0° 287° (WNW) 2,332 -0.2 -11.8°
Reaches altitude 10° 03:52:20 10° 281° (W) 1,470 -1.2 -11.6°
Maximum altitude 03:55:31 47° 206° (SSW) 550 -3.6 -11.3°
Drops below altitude 10° 03:58:41 10° 132° (SE) 1,466 -1.0 -11.0°
Sets 04:00:48 0° 126° (SE) 2,324 0.0 -10.8°
